Regional Weather Roundup
Issued by NWS Goodland, KS

Home | Current Version | Previous Version | Graphics & Text | Print | Product List | Glossary On
Versions: 1 2 3 4 5 6 7 8 9 10 11 12 13 14 15 16 17 18 19 20 21 22 23 24 25 26 27 28 29 30 31 32 33 34 35 36 37 38 39 40 41 42 43 44 45 46 47 48 49 50
000
ASUS43 KGLD 271959
RWRGLD

GOODLAND FORECAST AREA HOURLY WEATHER ROUNDUP
NATIONAL WEATHER SERVICE GOODLAND KS
200 PM MDT WED JUL 27 2016

...OFFICIAL OBSERVATIONS...

CITY           SKY/WX    TMP DP  RH WIND       PRES   REMARKS
GOODLAND KS    SUNNY     89  61  38 SE13G18   30.09F
HILL CITY KS   LGT RAIN  79  72  79 E7        30.03F
IMPERIAL NEB   SUNNY     86  61  42 SE10      30.07F
MCCOOK NEB     SUNNY     85  68  56 SE12      30.05F
AKRON CO       SUNNY     83  63  50 E10       30.14F
BURLINGTON CO  SUNNY     86  57  37 E9G17     30.13F
LIMON CO       SUNNY     90  43  19 VRB5      30.17F
$$

...UNOFFICIAL OBSERVATIONS...

CITY           SKY/WX    TMP DP  RH WIND       PRES   REMARKS
COLBY KS       MOSUNNY   91  64  40 W5        30.07F
LENORA KS        N/A     89  32  13 MISG        N/A
NORTON KS      MOSUNNY   90  55  31 NE6       30.04R
SHARON SPRINGS   N/A     88  70  55 N6G15       N/A
KIT CARSON CO    N/A     87  60  39 CALM        N/A
YUMA CO          N/A     82  66  57 SE12G18     N/A
$$




USA.gov is the U.S. government's official web portal to all federal, state and local government web resources and services.